Date String (YYYY-MM-DD hh:mm:ss) UTC,Instrument flags,Ambient pressure (hPa),Sample flow (lpm),Bypass flow (lpm),Sample temperature (°C),Ambient temperature (°C),ASC tube jacket temperature (°C),LED temperature (°C),Box temperature (°C),Sample RH (%),Span deviation,Mass concentration (μg/m³),Mass concentration (μg/m³),Mass concentration (μg/m³)
DateTimeUTC,F1_M11,P_M11,Q1_M11,Q2_M11,T1_M11,T2_M11,T3_M11,T4_M11,T5_M11,U1_M11,ZSPAN_M11,X0_M11,X2_M11,X1_M11
2022-05-21 00:00:00,,0824.7,4.99,0.00,22.2,21.1,00.0,31.3,24.0,21.3,0000.0,0002.55,0002.04,0001.88
2022-05-21 00:01:00,,0824.7,5.01,0.00,22.2,21.1,00.0,31.3,24.0,21.3,0000.0,0002.64,0002.10,0001.93
2022-05-21 00:02:00,,0824.7,5.00,0.00,22.2,21.1,00.0,31.3,24.0,21.3,0000.0,0002.73,0002.16,0001.97
2022-05-21 00:03:00,,0824.8,5.00,0.00,22.2,21.1,00.0,31.3,24.0,21.3,0000.0,0002.76,0002.17,0001.97
2022-05-21 00:04:00,,0824.8,5.00,0.00,22.2,21.1,00.0,31.2,24.0,21.3,0000.0,0002.72,0002.14,0001.97
2022-05-21 00:05:00,,0824.8,5.00,0.00,22.2,21.1,00.0,31.2,23.9,21.3,0000.0,0002.74,0002.13,0001.96
2022-05-21 00:06:00,,0824.9,4.99,0.00,22.2,21.0,00.0,31.2,23.9,21.3,0000.0,0002.84,0002.14,0001.96
2022-05-21 00:07:00,,0824.9,5.00,0.00,22.1,21.0,00.0,31.2,23.9,21.3,0000.0,0002.84,0002.13,0001.95
2022-05-21 00:08:00,,0824.9,4.99,0.00,22.1,21.0,00.0,31.2,23.9,21.3,0000.0,0002.81,0002.10,0001.92
2022-05-21 00:09:00,,0824.9,4.99,0.00,22.1,21.0,00.0,31.2,23.9,21.3,0000.0,0002.78,0002.06,0001.88
2022-05-21 00:10:00,,0824.8,5.00,0.00,22.1,21.0,00.0,31.2,23.9,21.3,0000.0,0002.71,0002.02,0001.84
2022-05-21 00:11:00,,0824.8,5.01,0.00,22.1,21.0,00.0,31.2,23.9,21.3,0000.0,0002.60,0001.96,0001.81
2022-05-21 00:12:00,,0824.8,5.00,0.00,22.1,21.0,00.0,31.2,23.9,21.3,0000.0,0002.43,0001.85,0001.72
2022-05-21 00:13:00,,0824.9,4.99,0.00,22.1,21.0,00.0,31.2,23.9,21.3,0000.0,0002.34,0001.76,0001.65
2022-05-21 00:14:00,,0824.9,5.00,0.00,22.1,21.0,00.0,31.2,24.0,21.3,0000.0,0002.23,0001.70,0001.60
2022-05-21 00:15:00,,0825.0,5.00,0.00,22.1,21.1,00.0,31.1,23.9,21.3,0000.0,0002.18,0001.65,0001.55
2022-05-21 00:16:00,,0825.1,5.00,0.00,22.1,21.1,00.0,31.1,24.0,21.3,0000.0,0002.09,0001.59,0001.50
2022-05-21 00:17:00,,0825.1,5.00,0.00,22.1,21.1,00.0,31.1,23.9,21.3,0000.0,0001.91,0001.51,0001.43
2022-05-21 00:18:00,,0825.1,4.99,0.00,22.1,21.0,00.0,31.1,24.0,21.3,0000.0,0001.76,0001.42,0001.35
2022-05-21 00:19:00,,0825.0,5.01,0.00,22.1,21.1,00.0,31.1,23.9,21.3,0000.0,0001.68,0001.36,0001.30
2022-05-21 00:20:00,,0824.9,4.99,0.00,22.1,21.1,00.0,31.1,24.0,21.3,0000.0,0001.68,0001.36,0001.29
2022-05-21 00:21:00,,0824.9,5.00,0.00,22.1,21.1,00.0,31.1,24.0,21.3,0000.0,0001.98,0001.66,0001.56
2022-05-21 00:22:00,,0824.9,4.99,0.00,22.1,21.1,00.0,31.1,24.0,21.2,0000.0,0002.87,0002.37,0002.25
2022-05-21 00:23:00,,0824.9,4.99,0.00,22.1,21.1,00.0,31.1,24.0,21.2,0000.0,0004.21,0003.21,0003.04
2022-05-21 00:24:00,,0824.9,5.00,0.00,22.1,21.1,00.0,31.1,24.0,21.2,0002.7,0005.27,0003.73,0003.58
2022-05-21 00:25:00,,0825.0,5.00,0.00,22.1,21.1,00.0,31.1,24.0,21.2,0003.4,0005.33,0003.76,0003.62
2022-05-21 00:26:00,,0825.1,5.00,0.00,22.2,21.2,00.0,31.1,24.0,21.2,0003.5,0005.39,0003.79,0003.65
2022-05-21 00:27:00,,0825.1,5.00,0.00,22.2,21.2,00.0,31.1,24.0,21.2,0003.4,0005.54,0003.87,0003.73
2022-05-21 00:28:00,,0825.1,5.00,0.00,22.2,21.2,00.0,31.1,24.0,21.2,0003.4,0005.63,0003.92,0003.77
2022-05-21 00:29:00,,0825.1,5.01,0.00,22.2,21.2,00.0,31.1,24.1,21.1,0003.4,0005.71,0003.96,0003.81
2022-05-21 00:30:00,,0825.1,5.00,0.00,22.2,21.2,00.0,31.1,24.1,21.1,0003.4,0005.78,0004.00,0003.85
2022-05-21 00:31:00,,0825.1,5.00,0.00,22.2,21.2,00.0,31.2,24.1,21.1,0003.3,0005.87,0004.05,0003.90
2022-05-21 00:32:00,,0825.2,5.01,0.00,22.2,21.2,00.0,31.2,24.1,21.1,0003.6,0005.72,0003.97,0003.82
2022-05-21 00:33:00,,0825.2,4.99,0.00,22.2,21.3,00.0,31.2,24.1,21.1,0001.9,0004.91,0003.64,0003.51
2022-05-21 00:34:00,,0825.2,5.00,0.00,22.2,21.3,00.0,31.2,24.2,21.0,0000.0,0003.82,0003.16,0003.07
2022-05-21 00:35:00,,0825.2,5.00,0.00,22.2,21.3,00.0,31.2,24.2,21.0,0000.0,0002.58,0002.34,0002.24
2022-05-21 00:36:00,,0825.2,5.01,0.00,22.3,21.3,00.0,31.2,24.2,21.0,0000.0,0002.46,0002.27,0002.16
2022-05-21 00:37:00,,0825.2,5.00,0.00,22.3,21.4,00.0,31.2,24.2,21.0,0000.0,0002.50,0002.31,0002.21
2022-05-21 00:38:00,,0825.3,4.99,0.00,22.3,21.4,00.0,31.2,24.2,21.0,0000.0,0002.36,0002.15,0002.04
2022-05-21 00:39:00,,0825.3,5.00,0.00,22.3,21.4,00.0,31.2,24.2,20.9,0000.0,0002.27,0002.08,0001.98
2022-05-21 00:40:00,,0825.3,5.00,0.00,22.3,21.4,00.0,31.2,24.3,20.9,0000.0,0002.17,0001.99,0001.90
2022-05-21 00:41:00,,0825.4,5.00,0.00,22.3,21.4,00.0,31.2,24.3,20.9,0000.0,0002.14,0001.93,0001.83
2022-05-21 00:42:00,,0825.5,5.00,0.00,22.3,21.5,00.0,31.2,24.3,20.9,0000.0,0002.06,0001.84,0001.74
2022-05-21 00:43:00,,0825.5,5.00,0.00,22.4,21.5,00.0,31.2,24.3,20.9,0000.0,0001.88,0001.68,0001.61
2022-05-21 00:44:00,,0825.5,5.00,0.00,22.4,21.5,00.0,31.2,24.3,20.8,0000.0,0001.75,0001.55,0001.49
2022-05-21 00:45:00,,0825.4,5.00,0.00,22.4,21.5,00.0,31.3,24.3,20.8,0000.0,0001.64,0001.43,0001.38
2022-05-21 00:46:00,,0825.4,4.99,0.00,22.4,21.5,00.0,31.3,24.3,20.8,0000.0,0001.54,0001.33,0001.29
2022-05-21 00:47:00,,0825.4,5.00,0.00,22.4,21.5,00.0,31.3,24.3,20.8,0000.0,0001.50,0001.26,0001.22
2022-05-21 00:48:00,,0825.4,5.00,0.00,22.4,21.5,00.0,31.3,24.3,20.8,0000.0,0001.44,0001.20,0001.15
2022-05-21 00:49:00,,0825.4,5.00,0.00,22.4,21.4,00.0,31.3,24.2,20.8,0000.0,0001.48,0001.21,0001.16
2022-05-21 00:50:00,,0825.4,5.00,0.00,22.3,21.4,00.0,31.3,24.2,20.8,0000.0,0001.55,0001.25,0001.19
2022-05-21 00:51:00,,0825.3,4.99,0.00,22.3,21.4,00.0,31.3,24.2,20.9,0000.0,0001.63,0001.31,0001.25
2022-05-21 00:52:00,,0825.4,5.00,0.00,22.3,21.4,00.0,31.3,24.2,20.9,0000.0,0001.69,0001.38,0001.32
2022-05-21 00:53:00,,0825.4,5.00,0.00,22.3,21.4,00.0,31.3,24.2,20.8,0000.0,0001.79,0001.45,0001.39
2022-05-21 00:54:00,,0825.4,5.00,0.00,22.3,21.3,00.0,31.3,24.2,20.9,0000.0,0001.87,0001.50,0001.43
2022-05-21 00:55:00,,0825.3,5.00,0.00,22.3,21.3,00.0,31.3,24.2,20.9,0000.0,0001.94,0001.54,0001.46
2022-05-21 00:56:00,,0825.3,5.00,0.00,22.3,21.3,00.0,31.3,24.1,20.9,0000.0,0002.03,0001.61,0001.54
2022-05-21 00:57:00,,0825.3,5.00,0.00,22.3,21.3,00.0,31.3,24.1,20.9,0000.0,0002.17,0001.72,0001.63
2022-05-21 00:58:00,,0825.4,5.00,0.00,22.3,21.3,00.0,31.3,24.1,20.9,0000.0,0002.26,0001.80,0001.70
2022-05-21 00:59:00,,0825.4,4.99,0.00,22.3,21.3,00.0,31.3,24.1,20.9,0000.0,0002.35,0001.87,0001.78
